Home > Time Zones > World Clock > Weather > Japan > Kyoto > Past weeks

Flag for Japan Weather past 2 weeks in Kyoto, Japan

Now
82 °F

Warm.


Feels Like: 85 °F
Forecast: 73 / 92 °F
Wind: 3 mph from East

Location: Osaka

Current Time: Aug 22, 2014 at 5:00:51 AM

Latest Report: Aug 22, 2014 at 4:00 AM


Visibility: N/A

Pressure: 29.90 "Hg

Humidity: 66%

Dew point: 69 °F

Location of KyotoLocation

Historic Weather in Kyoto — Graph

°F

Kyoto temperature yesterday

Maximum temperature yesterday: 91 °F (at 1:00 PM)
Minimum temperature yesterday: 83 °F (at 6:00 AM)
Average temperature yesterday: 86 °F

Past Weeks' High & Low Weather Summary

 TemperatureHumidityPressure
High92 °F (Aug 15, 12:00 PM)97% (Aug 9, 7:00 AM)30.00 "Hg (Aug 9, 7:00 AM)
Low71 °F (Aug 8, 9:00 PM)52% (Aug 21, 1:00 PM)29.03 "Hg (Aug 10, 11:00 AM)
Average83 °F74%29.76 "Hg
* Reported Aug 7 3:00 AM — Aug 22 3:00 AM, Kyoto, Weather by CustomWeather, © 2014

Note: Actual official high and low records may vary slightly from our data, if they occured in-between our weather recording intervals... More about our weather records

Advertising

Kyoto weather history for previous 24 hours

 ConditionsComfort  
Time TempWeatherWind HumidityBarometerVisibility
3:00 AM
Aug 22
84 °FOvercast.3 mph63%29.92 "Hg19 mi
2:00 AM85 °FWarm.7 mph62%29.91 "HgN/A
1:00 AM84 °FWarm.10 mph65%29.92 "HgN/A
12:00 AM85 °FWarm.7 mph60%29.91 "HgN/A
11:00 PM
Aug 21
85 °FWarm.6 mph67%29.91 "HgN/A
10:00 PM86 °FWarm.1 mph62%29.90 "HgN/A
9:00 PM86 °FOvercast.5 mph62%29.90 "Hg19 mi
8:00 PM86 °FWarm.1 mph67%29.89 "HgN/A
7:00 PM87 °FWarm.6 mph67%29.88 "HgN/A
6:00 PM87 °FOvercast.9 mph63%29.88 "Hg25 mi
5:00 PM87 °FWarm.9 mph64%29.88 "HgN/A
4:00 PM88 °FHot.10 mph59%29.88 "HgN/A
3:00 PM88 °FOvercast.8 mph65%29.89 "Hg25 mi
2:00 PM90 °FHot.10 mph56%29.89 "HgN/A
1:00 PM91 °FHot.7 mph52%29.90 "HgN/A
12:00 PM90 °FOvercast.9 mph57%29.91 "Hg25 mi
11:00 AM90 °FHot.8 mph61%29.93 "HgN/A
10:00 AM89 °FHot.10 mph62%29.94 "HgN/A
9:00 AM86 °FOvercast.7 mph67%29.95 "Hg25 mi
8:00 AM85 °FWarm.3 mph65%29.95 "HgN/A
7:00 AM83 °FWarm.5 mph69%29.96 "HgN/A
6:00 AM83 °FOvercast.1 mph71%29.95 "Hg25 mi
5:00 AM83 °FWarm.7 mph68%29.95 "HgN/A
Weather by CustomWeather, © 2014

See weather overviewHow to use our weather pages